AirNav  
 
 1635 users online  

2MS2 Highland Community Hospital Heliport
Picayune, Mississippi, USA


FAA INFORMATION EFFECTIVE 01 FEBRUARY 2018

Location

FAA Identifier: 2MS2
Lat/Long: 30-32-57.3100N / 089-39-57.1800W
30-32.955167N / 089-39.953000W
30.5492528 / -89.6658833
(estimated)
Elevation: 50 ft. / 15 m (estimated)
Variation: 01W (2020)
From city: 2 miles N of PICAYUNE, MS
Time zone: UTC -6 (UTC -5 during Daylight Saving Time)
Zip code: 39466

Heliport Operations

Heliport use: Private use. Permission required prior to landing
Activation date: 03/2017
Control tower: no
ARTCC: HOUSTON CENTER
FSS: GREENWOOD FLIGHT SERVICE STATION
Attendance: 
Wind indicator: yes
Segmented circle: no

Heliport Communications

WX AWOS-3 at MJD (4 nm S): 119.075 (601-798-4136)
WX ASOS at ASD (15 nm SW): 132.475 (985-643-7263)
WX AWOS-3 at HSA (15 nm SE): 118.375 (228-466-9320)
WX AWOS-3PT at BXA (19 nm NW): 118.025 (985-732-6224)

Nearby radio navigation aids

VOR radial/distance  VOR name  Freq  Var
PCUr097/3.4PICAYUNE VOR/DME112.2005E
GPTr284/31.6GULFPORT VORTAC109.0002E
HMUr087/(38.9)HAMMOND VOR109.6000E

 
NDB name  Hdg/Dist  Freq  Var  ID
HANCO300/12.422102WHS .... ...
BOGALUSA153/22.435300WGVB --. ...- -...

Heliport Services

Runway Information

Helipad H1

Dimensions: 54 x 54 ft. / 16 x 16 m
Surface: concrete
Runway edge lights: PERI
Latitude: 30-32.955167N
Longitude: 089-39.953000W
Elevation: 50.0 ft.
Traffic pattern: leftleft

Heliport Ownership and Management from official FAA records

Ownership: Privately-owned
Owner: HIGHLAND COMMUNITY HOSPITAL
130 HIGHLAND PKWY
PICAYUNE, MS 39466
Phone 601 798 4711
Manager: JOE GIBSON
6051 US HWY 40
HATTIESBURG, MS 39401
Phone 601 798 4711

Instrument Procedures

There are no published instrument procedures at 2MS2.

Some nearby airports with instrument procedures:

KMJD - Picayune Municipal Airport (4 nm S)
KASD - Slidell Airport (15 nm SW)
KHSA - Stennis International Airport (15 nm SE)
M13 - Poplarville-Pearl River County Airport (16 nm NE)
KBXA - George R Carr Memorial Air Field (19 nm NW)
 
Loc | Ops | Rwys | IFR | FBO | Links
Com | Nav | Svcs | Stats | Notes

AirNav Hotels Sweepstakes
 
Aerial photo
No photo
 
Airport distance calculator
Flying to Highland Community Hospital Heliport? Find the distance to fly.

From to 2MS2

Sunrise and sunset
Times for 21-Feb-2018
 Local
(UTC-6)
 Zulu
(UTC)
Morning civil twilight06:1012:10
Sunrise06:3412:34
Sunset17:5023:50
Evening civil twilight18:1500:15

Current date and time
Zulu (UTC)  21-Feb-2018 19:36:38
Local (UTC-6)  21-Feb-2018 13:36:38
 
METAR
KHSA 
16nm SE 
211850Z 14012G20KT 7SM BKN008 25/22 A3023
KASD 
19nm S 
211853Z AUTO 15016G22KT 10SM BKN024 OVC041 28/21 A3020 RMK AO2 SLP226 T02780211
KBXA 
19nm NW 
211915Z AUTO 18012G20KT 160V220 10SM SCT032 BKN039 BKN049 29/19 A3019 RMK AO2 LTG DSNT NW T02880193
KGPT 
31nm E 
211853Z 13016KT 8SM OVC007 24/22 A3024 RMK AO2 SLP239 T02440222
TAF
KASD 
19nm S 
211732Z 2118/2218 17013G18KT P6SM VCSH BKN022 OVC029 FM212300 15009KT P6SM VCSH BKN025 TEMPO 2205/2209 3SM BR BKN008
NOTAMs
Click for the latest NOTAMs
NOTAMs are issued by the DoD/FAA and will open in a separate window not controlled by AirNav.

 

 
 

Would you like to see your business listed on this page?

 If your business provides an interesting product or service to pilots, flight crews, aircraft, or users of the Highland Community Hospital Heliport, you should consider listing it here.  To start the listing process, click on the button below
 
Add a business
 

Other Pages about Highland Community Hospital Heliport

Update a link
 
Copyright © AirNav, LLC. All rights reserved. Privacy Policy  Contact